Temperature
23 22 21 21 20 20 20 19 19 19 18 17 17 16 16 15 15 14 14 14 13 13 13 13 13 13 13 13 13 13 13 14 14 14 15 15 15 15 15 15 15 15 16
23 22 21 21 21 20 20 20 19 19 18 18 17 16 16 15 15 14 14 14 13 13 13 13 13 13 13 13 13 13 13 13 13 14 15 15 15 15 15 15 15 15 15
23 23 21 21 21 21 20 20 19 19 18 18 17 17 16 15 15 14 14 14 13 13 13 13 13 13 13 13 13 13 13 13 13 14 14 15 15 15 15 14 15 15 15
22 22 21 21 21 21 20 20 19 19 19 18 17 17 16 16 15 14 14 14 13 13 13 13 13 13 13 13 13 13 13 13 13 13 14 14 14 14 15 14 15 15 15
22 21 21 21 21 20 20 20 19 19 19 18 17 17 16 15 15 15 14 14 14 13 13 13 13 13 13 12 12 12 13 13 13 13 13 14 14 14 15 14 14 14 15
21 21 21 21 21 21 21 20 20 19 19 18 18 17 16 16 15 15 14 14 14 13 13 13 13 13 13 13 12 12 13 13 13 13 13 14 14 14 14 14 14 14 14
21 21 21 21 21 21 21 20 20 19 19 18 17 17 16 16 15 15 15 14 14 14 13 13 13 13 13 13 13 12 13 13 13 13 13 13 13 13 14 14 14 14 14
21 20 20 21 21 21 21 20 20 19 19 18 18 17 16 16 15 15 15 14 14 14 13 13 13 13 13 13 13 13 13 13 13 13 13 13 13 13 13 14 14 14 14
20 19 20 20 20 20 20 20 20 19 19 18 18 17 17 16 16 15 15 15 14 14 14 13 13 13 13 13 13 13 13 12 13 13 13 13 13 13 13 13 14 14 14
19 19 19 19 19 20 20 20 20 19 19 18 18 17 17 16 16 15 15 15 15 14 14 14 13 13 13 13 13 13 13 13 13 13 12 13 13 13 13 13 13 14 14
18 18 18 19 19 19 19 19 19 19 18 18 17 17 17 16 16 16 15 15 15 14 14 14 14 14 13 13 13 13 13 13 13 13 13 12 12 13 13 13 13 13 13
18 18 18 18 18 18 18 18 18 18 18 18 17 17 17 16 16 16 15 15 15 14 14 14 14 14 14 13 13 13 13 13 13 13 13 13 13 12 13 13 13 13 13
17 17 17 18 18 18 18 18 18 18 18 18 17 17 16 16 16 16 15 15 15 15 14 14 14 14 14 14 13 13 13 13 13 13 13 13 13 12 13 13 13 13 13
17 17 17 17 17 17 17 17 18 18 17 17 17 17 16 16 16 16 15 15 15 15 14 14 14 14 14 14 14 13 13 13 13 13 13 13 13 13 12 12 12 13 13
17 16 16 16 16 17 17 17 17 17 17 17 17 16 16 16 16 16 16 15 15 15 15 14 14 14 14 14 14 14 13 13 13 13 13 13 13 13 13 13 12 12 13
16 16 16 16 16 16 16 16 16 16 16 16 16 16 16 16 16 16 16 15 15 15 15 15 14 14 14 14 14 14 13 14 13 13 13 13 13 13 13 13 13 13 12
15 15 15 15 15 16 16 16 16 16 15 15 15 15 15 15 15 15 15 15 15 15 15 15 14 14 14 14 14 14 14 14 14 14 13 13 13 13 13 13 13 13 13
14 14 14 15 15 15 15 15 15 15 15 15 14 14 15 15 15 15 15 15 15 14 15 15 14 14 14 15 14 14 14 14 14 13 13 13 13 13 13 13 12 12 13
14 14 14 14 14 14 14 14 14 14 14 14 14 14 14 14 14 14 14 14 14 14 14 14 14 14 14 15 14 14 14 13 14 13 13 13 13 13 13 13 12 12 12
13 13 13 13 14 14 13 14 14 14 14 14 13 13 13 13 14 14 14 14 14 14 14 14 14 14 14 14 14 14 13 13 14 14 14 14 13 13 13 13 13 12 12
13 13 13 13 13 13 13 13 13 13 13 13 13 13 13 13 13 13 13 13 13 13 13 13 14 14 14 14 14 14 13 13 14 14 14 13 14 14 13 13 13 13 12
12 12 12 12 12 12 12 12 12 12 12 12 12 12 12 12 13 13 13 13 13 13 13 13 13 13 13 14 14 14 14 13 13 13 14 14 14 14 13 13 13 13 12
12 12 11 11 11 11 11 11 11 11 11 11 11 11 11 12 12 12 12 12 12 12 12 12 12 13 13 13 13 13 14 13 13 13 13 13 13 13 13 13 13 12 12
11 11 11 11 11 11 10 10 10 10 10 10 10 11 11 11 11 11 11 11 11 11 11 11 12 12 12 12 13 13 13 13 13 13 13 13 13 13 12 12 12 12 12
11 11 10 10 10 10 10 10 10 9 10 10 10 10 10 10 10 10 10 10 10 10 10 10 11 11 11 12 12 12 12 12 12 12 12 12 12 12 12 11 11 11 11
10 10 10 10 9 9 9 9 9 9 9 9 9 9 9 9 9 9 9 10 10 10 10 10 10 10 11 11 11 12 12 12 12 11 11 11 12 12 12 11 11 11 11
Wind_Speed
5 5 6 8 8 9 9 9 8 8 6 4 3 2 2 2 1 1 2 2 3 4 5 5 5 5 5 6 6 5 5 4 4 3 2 1 1 1 1 2 2 2 2
3 3 5 7 9 10 10 9 9 8 7 4 3 2 1 2 1 2 2 2 3 4 5 5 5 5 4 5 6 5 4 4 3 3 3 2 1 1 0 0 1 1 1
2 2 3 6 8 9 10 9 9 9 8 6 4 3 2 2 2 2 2 2 3 3 4 5 5 5 5 5 5 5 5 5 3 3 3 2 1 0 1 1 0 0 0
2 2 1 3 6 7 8 9 9 9 8 7 6 5 3 2 2 2 2 2 2 3 3 4 4 4 4 4 5 5 5 5 4 2 2 3 2 2 0 0 1 1 1
4 3 1 1 2 4 6 7 8 8 8 8 6 6 4 3 2 2 2 3 2 2 3 3 4 4 4 4 5 5 5 4 4 3 3 2 2 3 1 0 0 1 1
6 5 3 2 2 3 4 6 7 8 8 8 8 7 5 4 4 4 3 3 2 2 2 3 3 3 3 4 4 4 4 4 4 4 3 2 2 2 1 1 1 1 1
7 6 5 3 2 3 4 5 7 7 8 8 8 8 7 6 6 5 4 4 3 3 2 3 3 3 3 3 4 3 3 3 3 3 3 3 2 3 2 1 1 0 1
9 8 6 4 2 2 3 4 6 7 7 8 8 8 8 6 5 5 5 5 4 3 3 3 4 3 3 3 3 3 3 3 3 3 3 2 2 2 2 1 1 1 1
10 9 7 5 3 1 2 3 4 5 6 8 8 8 8 7 7 7 6 5 5 4 4 4 4 4 3 4 3 3 3 3 3 3 2 2 2 2 2 2 2 2 2
11 10 9 7 5 3 1 1 3 4 5 6 7 6 8 8 7 7 7 6 6 5 5 5 5 4 4 4 4 3 3 3 2 2 3 3 2 2 2 2 2 3 3
10 10 9 8 7 5 3 2 1 3 4 5 6 7 7 7 8 8 8 7 7 7 7 6 6 5 5 4 4 4 4 4 3 3 3 3 2 2 2 2 2 3 3
10 10 10 9 9 8 6 4 3 2 3 4 5 6 6 7 8 8 9 9 8 8 8 7 7 6 6 6 5 5 5 4 4 4 3 3 2 3 3 2 3 3 3
10 10 10 10 9 8 7 6 5 4 3 3 4 5 6 7 8 9 9 9 9 9 9 9 8 8 7 7 7 6 6 5 5 4 4 4 3 4 3 3 3 3 2
10 11 11 10 10 9 8 8 7 5 4 3 3 5 6 6 7 8 8 9 9 10 10 10 9 9 9 8 8 8 7 7 6 6 5 5 5 5 4 4 3 3 3
11 11 11 11 10 10 9 8 8 6 5 4 4 4 6 6 7 7 8 9 9 10 11 11 11 10 9 9 9 9 9 8 7 7 7 6 5 4 4 4 3 4 4
10 10 11 11 11 11 10 9 8 7 6 5 5 5 6 6 6 7 8 8 9 10 10 11 12 12 10 8 9 11 10 10 9 9 8 7 8 8 8 6 5 5 5
8 9 10 10 10 10 10 9 9 8 7 7 7 7 7 7 7 7 8 8 9 10 11 11 12 13 13 11 12 14 12 12 11 10 9 7 7 8 8 9 10 8 7
7 8 9 9 10 10 10 9 9 9 8 8 8 8 8 8 8 8 8 9 10 10 10 11 13 13 13 12 13 14 15 14 13 12 11 10 10 10 9 9 9 8 8
5 6 7 8 9 10 10 10 9 9 9 10 10 10 10 9 9 9 10 10 10 10 11 11 12 13 14 13 15 14 13 14 15 13 13 12 12 9 10 10 10 9 7
4 5 6 7 9 9 10 10 10 11 11 11 12 11 11 10 11 11 11 10 10 11 11 12 12 14 15 12 14 16 13 14 14 12 13 13 13 10 13 13 11 11 9
4 5 6 7 8 9 10 10 11 12 12 12 12 12 12 12 12 11 11 10 10 11 11 13 12 13 14 13 14 17 14 14 14 12 12 11 14 13 14 14 12 10 8
3 4 5 6 7 9 10 10 11 12 12 12 12 12 12 12 11 11 11 11 11 11 11 12 13 11 12 12 12 16 19 16 15 13 12 11 14 16 15 14 10 8 8
2 4 5 6 7 8 10 11 11 12 13 13 13 13 13 12 12 12 12 11 10 10 11 11 11 11 10 10 11 15 17 18 16 13 11 9 12 14 13 14 12 11 10
3 4 6 7 8 9 10 11 12 12 13 14 14 13 13 13 13 11 11 10 10 10 11 11 12 12 11 10 8 9 11 13 15 14 11 10 11 12 10 11 12 11 11
3 4 6 7 9 10 10 11 12 13 14 14 13 14 13 13 13 13 11 12 12 11 12 12 13 13 13 11 10 10 10 10 11 11 11 11 11 12 12 12 11 11 11
4 5 6 8 9 10 11 11 11 12 13 13 13 12 12 12 12 13 14 13 13 15 16 17 17 15 15 14 13 14 15 14 12 12 12 13 13 14 14 13 13 13 12
Wind_Direction
221 219 218 212 208 206 203 195 193 184 178 175 192 211 225 241 263 302 336 322 325 332 336 330 340 341 346 343 341 339 328 326 323 298 288 233 234 262 252 254 252 219 201
228 207 209 205 206 204 201 197 194 187 187 184 187 201 235 257 277 272 274 301 319 327 328 332 334 343 341 344 349 346 331 334 331 314 296 252 175 149 87 274 258 247 195
282 246 212 209 205 205 201 198 194 188 189 181 172 171 192 232 234 250 266 289 306 316 322 330 334 340 341 354 349 344 339 330 334 341 320 310 324 43 106 58 71 28 245
333 318 252 213 207 206 202 200 194 192 187 183 193 202 230 264 282 284 277 269 278 301 311 321 328 334 342 346 345 354 337 327 329 340 335 327 327 295 224 113 60 53 49
15 2 348 258 205 195 195 197 192 192 189 194 198 215 237 259 268 265 261 272 276 284 294 309 318 330 335 344 344 344 342 338 335 334 330 319 313 284 283 244 132 75 47
33 33 39 64 112 156 180 189 192 193 193 199 206 220 234 243 252 256 264 266 269 274 276 287 303 317 332 335 336 333 341 343 342 333 333 327 317 306 292 261 217 122 57
36 39 43 58 91 145 173 186 192 196 199 206 215 222 232 241 246 256 256 267 276 274 283 277 288 310 320 320 320 319 329 335 335 337 342 339 333 324 308 265 257 175 154
35 34 32 39 66 134 172 189 198 204 204 212 220 225 228 236 247 247 261 264 275 281 281 277 283 292 302 303 304 305 316 322 324 335 336 329 339 325 309 289 243 216 194
32 31 29 30 39 82 171 197 205 212 213 220 224 228 230 232 241 245 250 258 263 268 268 266 268 273 279 288 293 298 303 305 310 319 314 316 329 313 306 282 267 262 230
33 33 32 30 30 32 35 205 226 230 226 228 229 232 235 234 240 246 247 252 257 258 259 259 261 261 261 264 271 279 298 291 295 301 303 303 294 308 296 282 271 267 264
31 31 32 33 34 38 39 27 283 258 247 241 238 234 235 239 241 241 246 250 253 248 250 252 257 260 257 253 250 264 270 283 287 276 281 278 287 283 279 275 270 260 254
36 37 36 36 36 33 29 22 358 316 280 262 253 248 246 243 245 244 245 247 249 250 251 251 252 253 252 252 254 253 258 268 276 275 272 267 246 259 270 265 256 250 249
42 40 37 35 31 28 24 19 7 348 322 285 266 259 255 253 252 253 251 250 250 250 247 246 248 250 248 247 248 249 252 256 260 262 262 261 251 247 244 251 254 249 245
43 38 33 32 27 25 21 18 11 1 347 321 284 273 271 265 261 259 257 254 254 253 251 248 247 248 247 245 245 246 248 251 251 249 248 249 246 248 245 239 241 243 238
39 33 29 25 21 21 18 16 8 1 353 342 319 301 291 281 272 265 259 257 256 256 256 254 251 247 246 244 244 244 245 248 249 246 242 237 241 271 268 260 245 232 230
34 28 25 22 17 14 10 8 4 359 352 343 332 321 309 299 287 276 266 261 258 257 256 254 252 250 244 227 231 246 246 245 246 246 243 232 219 220 223 244 263 271 250
31 24 21 17 11 8 3 0 357 355 352 347 338 330 317 305 294 288 278 267 261 257 255 254 253 251 245 218 219 229 245 247 247 246 241 236 228 221 227 214 216 228 244
26 20 14 12 8 6 3 358 356 355 353 348 339 333 324 311 302 293 282 274 269 263 257 257 256 253 249 224 222 222 237 245 244 242 242 237 233 224 226 225 222 223 218
20 13 6 3 3 3 359 355 356 355 352 346 337 331 324 316 307 296 287 280 273 269 263 260 258 255 251 227 219 221 239 242 242 239 238 238 236 204 204 227 227 223 216
19 9 2 0 1 359 354 352 353 352 348 340 332 328 323 315 307 299 293 286 275 270 270 265 261 258 258 238 216 219 238 242 241 237 236 228 235 205 193 220 225 225 219
13 2 360 0 356 351 349 349 350 348 342 335 330 325 322 316 309 304 297 291 283 277 272 270 264 261 259 247 222 215 232 241 242 237 233 227 202 210 203 220 228 224 220
1 353 350 351 348 346 344 343 343 339 334 331 328 326 322 318 313 308 302 296 289 281 275 272 270 265 261 254 236 219 226 242 243 242 237 227 189 200 205 214 218 196 202
333 337 338 336 338 341 341 335 334 331 328 326 326 324 323 320 316 311 306 300 291 283 281 276 273 271 267 258 239 226 226 229 238 244 243 226 186 194 207 211 199 194 208
314 324 325 328 333 335 332 328 327 325 323 323 323 322 322 322 320 314 306 301 296 291 287 283 279 276 271 264 257 246 236 228 234 240 230 210 196 206 215 197 198 209 212
297 309 318 324 324 326 328 328 327 324 321 320 321 321 322 319 316 313 307 300 294 291 288 287 284 280 274 269 267 263 253 241 232 228 224 218 210 208 210 210 205 205 206
291 302 310 313 317 321 322 324 324 321 319 320 321 320 318 316 314 312 309 293 278 279 271 268 271 277 276 282 270 259 256 250 233 223 223 219 215 211 208 208 206 205 205
Height
1524 1525 1526 1527 1528 1530 1532 1533 1534 1535 1535 1535 1535 1535 1535 1535 1534 1533 1531 1530 1529 1528 1526 1525 1523 1521 1520 1518 1516 1515 1514 1512 1511 1511 1510 1509 1508 1508 1508 1508 1509 1510 1510
1522 1523 1523 1524 1526 1528 1530 1531 1532 1533 1534 1535 1535 1534 1534 1534 1533 1532 1530 1529 1528 1527 1526 1525 1523 1521 1519 1517 1516 1514 1513 1512 1511 1511 1509 1509 1509 1507 1507 1507 1508 1509 1509
1520 1521 1521 1522 1524 1526 1527 1529 1531 1532 1533 1533 1534 1533 1533 1533 1533 1532 1530 1529 1528 1526 1525 1524 1523 1521 1520 1518 1516 1514 1513 1512 1511 1510 1510 1509 1508 1508 1508 1507 1507 1508 1508
1519 1520 1520 1521 1522 1523 1525 1527 1529 1530 1532 1532 1533 1533 1533 1533 1533 1531 1530 1529 1527 1526 1524 1523 1522 1521 1520 1518 1517 1515 1513 1512 1511 1510 1509 1509 1508 1508 1508 1508 1507 1507 1508
1519 1519 1519 1520 1520 1522 1523 1525 1527 1529 1530 1531 1532 1532 1532 1532 1531 1530 1529 1528 1527 1526 1524 1523 1522 1521 1519 1518 1516 1514 1513 1512 1511 1510 1509 1508 1507 1508 1507 1507 1508 1507 1507
1519 1519 1519 1519 1519 1520 1522 1523 1525 1527 1528 1529 1530 1530 1531 1530 1530 1529 1529 1528 1527 1526 1524 1523 1522 1521 1519 1518 1516 1514 1513 1512 1510 1510 1509 1508 1508 1507 1507 1507 1507 1507 1508
1520 1519 1519 1519 1519 1520 1521 1522 1523 1525 1526 1527 1528 1529 1529 1529 1529 1529 1528 1527 1527 1526 1524 1523 1522 1521 1519 1517 1516 1515 1513 1512 1511 1510 1509 1508 1507 1507 1506 1506 1506 1507 1508
1520 1519 1519 1519 1519 1519 1520 1521 1522 1523 1524 1525 1526 1526 1527 1527 1527 1527 1526 1526 1525 1525 1523 1522 1521 1520 1518 1517 1516 1515 1513 1512 1511 1510 1508 1507 1507 1506 1506 1506 1507 1507 1508
1521 1520 1519 1519 1519 1519 1520 1520 1521 1522 1522 1523 1524 1524 1525 1524 1525 1525 1524 1524 1524 1522 1522 1520 1520 1519 1517 1516 1515 1514 1513 1512 1511 1510 1508 1507 1506 1506 1505 1505 1506 1507 1507
1523 1521 1520 1519 1519 1519 1519 1519 1520 1520 1520 1521 1521 1521 1522 1522 1522 1522 1522 1522 1522 1520 1520 1519 1519 1518 1516 1515 1514 1514 1512 1511 1510 1508 1507 1506 1506 1505 1505 1505 1505 1505 1506
1524 1522 1521 1520 1519 1518 1518 1518 1518 1518 1518 1518 1519 1519 1519 1519 1519 1519 1519 1519 1519 1518 1518 1517 1517 1516 1515 1514 1513 1512 1511 1510 1510 1509 1507 1506 1505 1505 1504 1504 1504 1504 1505
1526 1524 1522 1521 1519 1518 1518 1517 1517 1517 1517 1516 1516 1516 1516 1516 1516 1516 1516 1517 1517 1516 1516 1515 1515 1514 1513 1513 1512 1511 1510 1509 1508 1507 1507 1506 1504 1504 1504 1503 1503 1503 1503
1527 1525 1523 1521 1520 1519 1518 1517 1516 1516 1515 1514 1514 1514 1514 1513 1513 1514 1514 1513 1513 1513 1513 1512 1512 1511 1511 1510 1509 1509 1508 1508 1507 1506 1505 1504 1504 1503 1502 1502 1502 1502 1502
1528 1526 1524 1523 1521 1520 1519 1517 1516 1515 1514 1513 1512 1511 1511 1511 1510 1510 1510 1510 1510 1510 1509 1509 1509 1508 1507 1507 1507 1506 1506 1505 1505 1504 1503 1502 1502 1501 1501 1500 1500 1500 1500
1528 1527 1525 1524 1522 1521 1519 1517 1516 1514 1513 1512 1510 1509 1509 1508 1507 1507 1506 1506 1505 1505 1505 1505 1505 1504 1503 1503 1503 1503 1503 1502 1502 1501 1501 1500 1499 1498 1498 1499 1498 1498 1499
1529 1527 1526 1524 1522 1521 1519 1517 1515 1513 1512 1510 1509 1508 1506 1505 1504 1503 1502 1501 1501 1501 1500 1500 1500 1499 1499 1498 1498 1499 1499 1499 1499 1498 1498 1497 1496 1496 1495 1495 1496 1496 1497
1529 1527 1526 1524 1522 1521 1519 1517 1514 1512 1511 1509 1507 1505 1504 1502 1501 1499 1498 1497 1496 1496 1495 1494 1494 1493 1494 1493 1493 1494 1494 1495 1495 1495 1494 1494 1493 1493 1493 1493 1493 1493 1493
1528 1527 1526 1524 1522 1520 1518 1516 1514 1512 1509 1507 1505 1503 1501 1499 1497 1495 1494 1493 1492 1491 1489 1488 1488 1487 1487 1487 1487 1488 1489 1489 1489 1489 1489 1489 1489 1489 1490 1490 1490 1491 1491
1528 1527 1525 1524 1522 1519 1517 1515 1513 1510 1508 1505 1503 1500 1498 1495 1493 1491 1489 1488 1487 1485 1484 1483 1482 1480 1480 1480 1481 1482 1482 1483 1483 1483 1483 1484 1484 1484 1485 1486 1487 1487 1488
1526 1525 1524 1522 1520 1518 1516 1513 1511 1508 1505 1503 1500 1497 1495 1492 1489 1487 1485 1483 1481 1479 1478 1477 1475 1474 1473 1473 1474 1475 1476 1476 1477 1477 1477 1477 1478 1479 1479 1480 1482 1483 1484
1524 1523 1522 1520 1518 1516 1514 1511 1509 1506 1503 1500 1497 1494 1491 1488 1485 1482 1480 1477 1475 1473 1472 1470 1469 1468 1467 1466 1466 1467 1468 1469 1470 1470 1470 1470 1470 1472 1473 1475 1477 1478 1479
1522 1521 1519 1518 1516 1513 1511 1509 1506 1503 1500 1496 1493 1490 1487 1484 1481 1478 1475 1472 1470 1467 1465 1464 1462 1461 1460 1459 1458 1458 1459 1461 1462 1462 1463 1464 1464 1465 1467 1469 1470 1472 1474
1519 1518 1516 1515 1513 1511 1508 1506 1503 1499 1496 1493 1490 1486 1483 1480 1476 1473 1470 1467 1464 1462 1459 1458 1455 1454 1452 1451 1451 1450 1450 1451 1452 1454 1455 1456 1457 1458 1460 1462 1464 1466 1468
1516 1515 1513 1512 1510 1507 1505 1502 1499 1496 1493 1489 1486 1482 1479 1475 1472 1468 1465 1462 1459 1456 1454 1451 1449 1447 1445 1444 1443 1443 1442 1442 1443 1444 1446 1448 1450 1451 1453 1454 1457 1459 1461
1513 1512 1510 1508 1506 1504 1501 1498 1495 1492 1489 1485 1482 1478 1474 1470 1466 1463 1460 1456 1453 1451 1448 1445 1443 1440 1438 1437 1436 1435 1435 1435 1435 1436 1437 1439 1440 1442 1445 1447 1449 1451 1453
1509 1508 1507 1504 1502 1500 1497 1494 1491 1488 1485 1481 1478 1474 1470 1466 1461 1457 1453 1449 1446 1442 1439 1436 1434 1432 1430 1428 1427 1426 1426 1426 1427 1428 1428 1429 1431 1433 1435 1438 1441 1443 1445